Temp
24 24 24 24 24 25 25 24 24 24 24 24 24 24 24 24 24 23 23 24 24 24 24 24 24 24 24 24 25 25 25 24 24 24 25 25 25 25 25 25 26 26
24 24 24 24 24 25 25 25 24 24 24 24 24 24 24 24 24 24 23 24 24 24 24 24 24 24 24 24 24 24 24 24 24 24 24 25 25 25 25 25 25 26
24 24 24 24 24 25 25 25 24 24 24 24 24 24 24 24 24 24 24 24 24 24 24 24 24 24 24 24 24 24 24 24 24 24 24 25 25 25 25 25 25 25
24 24 24 24 24 25 25 25 25 25 25 25 25 24 24 24 24 24 24 24 24 24 24 24 24 24 24 24 24 24 24 24 24 24 24 25 25 25 25 25 25 25
24 24 24 24 24 25 24 25 25 25 25 25 25 25 24 24 24 24 24 24 24 24 24 24 24 24 24 24 24 24 24 24 24 24 24 25 25 25 25 25 25 25
24 24 24 24 24 24 24 24 25 25 25 25 25 25 24 24 24 24 24 24 24 24 24 24 24 24 24 24 24 24 24 24 24 24 24 25 25 25 25 25 25 25
24 24 24 24 24 24 24 24 24 24 25 25 25 25 24 24 24 24 24 24 24 24 24 25 25 25 24 24 24 24 24 24 24 24 24 24 24 25 25 25 25 25
24 24 24 24 24 24 24 24 24 24 24 24 24 24 24 24 24 24 24 24 24 24 24 25 25 25 24 24 24 24 24 24 24 24 24 24 24 24 25 25 25 25
23 24 24 24 24 24 24 24 24 24 24 24 24 24 24 24 24 24 24 24 24 24 25 25 25 25 24 24 24 24 24 24 24 24 24 24 24 24 25 25 25 25
23 23 23 24 24 24 24 24 24 24 24 24 24 24 24 24 24 24 24 24 24 24 25 25 25 25 24 24 24 24 24 24 24 24 24 24 24 24 25 25 25 25
23 23 23 24 24 24 24 24 24 24 24 24 24 24 24 24 24 24 24 24 24 24 24 24 25 24 24 24 24 24 24 24 24 24 24 24 24 24 24 24 25 25
23 23 23 24 24 24 24 24 24 24 24 24 24 24 24 24 24 24 24 24 24 24 24 24 24 24 24 24 24 24 24 24 24 24 24 24 24 24 24 24 24 25
23 23 23 24 24 24 24 24 24 24 24 24 24 24 25 25 25 24 24 24 24 24 24 24 24 24 24 24 24 24 24 24 24 24 24 24 24 24 24 24 24 24
24 24 24 24 24 24 24 24 24 24 24 24 24 24 25 25 25 25 25 25 25 24 24 24 24 24 24 24 24 24 24 25 24 24 24 24 24 25 25 25 25 25
24 24 24 24 24 24 24 24 24 24 24 24 24 25 25 25 25 25 25 25 25 25 25 24 24 24 24 24 25 24 25 25 24 24 25 24 24 25 25 25 25 25
23 24 24 24 24 24 24 24 24 24 24 24 24 25 25 25 25 25 25 25 25 25 25 25 24 24 24 24 24 25 25 25 24 24 24 24 24 24 24 25 25 25
23 23 24 24 24 24 24 24 24 24 24 24 24 25 25 25 25 25 25 25 25 25 25 25 24 24 24 24 24 24 25 25 24 24 24 24 24 24 24 24 25 25
23 23 23 24 24 24 24 24 24 24 24 24 25 25 25 25 25 25 25 25 25 25 24 24 24 24 24 24 24 24 25 25 23 23 24 24 23 24 24 24 24 24
22 23 23 24 24 24 24 24 24 24 24 24 25 25 25 25 25 25 25 25 25 24 24 24 24 24 24 24 24 24 25 25 23 22 23 24 24 24 24 24 24 24
22 22 22 23 23 24 24 24 24 24 24 24 25 24 25 25 25 25 24 24 24 24 24 24 24 24 24 24 24 24 24 25 24 22 22 23 23 24 24 24 24 24
23 22 21 21 22 23 23 23 23 23 23 23 24 24 24 24 23 23 23 23 24 24 24 24 24 24 24 24 24 24 24 24 24 23 23 22 23 23 23 24 24 24
21 21 20 20 21 22 23 23 23 23 23 22 22 23 24 24 23 23 22 22 23 23 23 23 23 23 23 23 23 23 23 23 23 23 23 23 23 23 23 23 24 24
20 20 21 20 20 21 22 23 24 24 24 23 22 22 23 23 23 23 23 22 22 22 22 22 22 22 22 22 22 22 23 23 23 23 22 22 22 22 22 22 22 22
20 20 21 20 19 20 22 23 23 24 24 23 22 21 22 22 22 22 22 22 22 21 21 21 21 21 22 22 22 22 22 22 22 22 21 21 21 21 21 21 21 21
20 20 21 20 20 20 21 22 23 22 22 21 21 21 21 21 21 21 21 21 21 21 21 21 21 21 21 21 21 21 22 22 21 21 20 20 20 20 20 20 20 19
20 21 21 21 20 19 19 20 21 21 20 19 20 20 21 20 20 21 20 20 20 20 20 20 20 20 20 20 21 21 21 21 21 20 20 20 19 19 19 19 19 19
Height
847 849 850 851 853 855 856 858 859 861 862 863 864 865 866 867 867 868 869 869 870 870 871 871 872 873 873 874 874 875 875 875 875 876 876 876 875 875 875 875 875 875
846 847 849 850 852 854 855 857 859 860 862 863 864 865 866 866 867 868 868 869 869 869 870 871 871 872 872 873 873 874 874 875 875 875 875 875 875 875 875 875 875 875
845 846 847 849 851 853 854 856 858 859 861 862 863 864 865 865 866 867 867 868 868 868 869 870 870 871 872 872 872 873 873 874 874 874 875 875 875 875 875 875 875 875
843 845 846 848 849 851 853 855 856 857 859 860 861 862 863 864 864 865 866 866 867 867 868 869 870 870 870 871 871 872 872 873 873 873 874 874 874 875 875 875 875 875
842 844 845 847 848 850 851 853 854 855 856 858 858 860 860 861 862 863 864 865 865 866 867 867 868 868 869 869 870 870 871 871 872 872 873 873 874 874 874 874 874 875
841 843 844 846 847 849 850 851 852 853 854 855 856 857 858 859 860 861 862 863 863 864 865 865 866 866 867 868 868 869 869 870 871 872 872 872 873 873 873 874 874 874
840 842 844 846 847 848 849 850 851 852 852 854 854 855 856 857 858 859 859 861 861 862 863 864 864 865 866 866 867 868 868 869 870 871 871 871 872 872 872 873 873 873
840 841 843 845 846 847 849 849 850 851 851 852 853 854 855 855 857 857 858 859 860 860 861 862 863 864 865 866 866 867 868 868 869 870 870 871 871 872 872 872 872 872
839 841 843 844 846 847 848 848 849 850 850 851 851 853 853 854 855 856 857 858 858 859 860 861 862 863 864 865 866 866 867 868 868 869 869 870 870 871 871 871 871 871
839 841 842 844 845 846 847 848 848 849 850 850 851 851 852 853 854 855 856 856 857 858 859 860 860 861 863 864 865 865 866 866 867 868 868 869 870 870 870 870 870 870
838 840 842 843 844 845 846 847 847 848 849 849 849 850 851 852 853 854 854 855 856 857 858 859 860 860 862 863 864 864 865 865 866 867 868 868 869 869 869 869 869 869
837 839 841 842 844 845 845 846 847 847 848 848 848 849 849 850 851 852 853 853 854 855 857 858 859 860 860 861 862 863 863 864 865 866 866 867 867 867 868 868 868 868
835 838 839 841 842 843 844 845 846 847 847 847 848 848 848 849 849 850 851 852 853 854 855 856 857 859 859 860 861 862 862 863 864 864 865 865 866 866 866 866 866 866
834 836 838 840 841 842 843 844 845 846 846 846 847 847 847 848 848 849 850 850 852 852 854 855 856 857 858 859 860 860 861 861 862 863 863 864 864 865 865 865 865 865
833 835 837 839 841 841 842 843 844 845 845 846 846 846 847 847 848 848 849 849 850 851 852 853 854 855 856 857 858 859 859 860 860 861 862 863 863 863 863 863 863 863
832 834 836 838 839 840 841 842 843 844 844 845 845 845 846 846 847 847 848 848 849 850 851 852 853 854 855 856 856 857 858 858 859 860 861 862 862 862 862 862 862 862
831 832 834 835 837 839 839 840 842 843 843 844 844 844 845 845 846 846 846 847 848 849 849 850 851 852 853 854 855 855 856 856 857 859 860 860 860 861 861 861 861 861
829 830 832 833 834 836 837 838 840 841 842 843 843 843 844 844 844 845 845 846 846 847 848 849 849 850 851 852 853 853 854 854 856 858 859 858 859 859 859 859 860 860
829 830 831 832 832 833 835 836 838 839 840 841 841 842 842 843 843 843 844 844 845 846 846 847 848 848 849 850 850 851 852 852 853 856 858 857 856 857 858 858 858 858
826 829 830 831 831 832 833 834 835 837 838 839 840 840 840 841 841 841 842 843 843 844 845 845 846 847 847 848 849 849 850 850 851 854 856 857 856 855 856 856 856 857
822 826 831 833 831 831 831 832 833 835 836 837 838 838 838 839 839 840 840 841 842 843 843 844 845 845 846 846 847 848 848 849 850 851 853 855 855 855 855 855 855 855
820 824 830 834 833 830 829 829 830 831 833 836 837 837 836 836 837 838 839 840 840 841 842 843 843 844 844 845 846 847 847 848 848 849 850 852 852 853 853 853 853 854
821 823 826 830 832 831 828 827 827 828 830 832 836 837 835 834 835 835 836 837 838 840 841 841 842 843 843 844 845 846 846 847 847 848 848 849 850 851 852 852 853 853
822 822 822 825 831 831 828 825 825 827 828 829 833 835 835 834 834 834 834 835 836 837 839 840 841 842 843 843 844 845 845 846 846 847 847 847 848 849 850 851 852 852
821 821 820 823 828 830 826 823 824 827 829 830 832 834 834 834 834 834 834 834 834 835 837 838 840 841 842 843 843 844 844 845 846 846 846 847 848 849 850 850 850 851
818 817 817 818 823 827 827 825 825 827 830 833 834 834 834 834 834 834 834 834 835 835 835 837 839 840 841 842 843 843 844 844 845 845 846 846 847 848 849 850 850 851
Wind_Speed
20 19 19 19 18 17 16 15 14 13 13 14 14 14 14 12 10 8 7 6 7 9 8 6 5 4 3 3 3 3 3 3 3 2 2 2 2 2 3 3 4 4
19 18 18 19 19 17 16 15 13 13 13 13 13 13 13 12 10 9 8 7 7 9 8 6 5 4 4 4 4 4 3 3 3 3 3 4 3 3 3 3 4 4
18 17 18 20 19 18 16 15 14 13 13 13 12 12 12 11 10 9 8 6 7 8 9 7 5 5 4 4 4 4 4 3 3 4 4 4 3 3 3 4 4 5
19 18 18 19 19 17 16 15 15 13 13 13 12 11 11 10 10 10 9 7 7 9 9 8 7 6 5 5 6 6 6 5 4 5 5 5 4 3 4 4 5 5
20 19 18 18 18 17 16 16 16 15 13 12 11 11 11 10 10 10 10 10 9 9 10 9 8 8 8 8 8 8 8 8 7 6 6 6 6 5 5 5 5 5
22 21 20 19 17 17 17 17 16 16 15 14 12 12 12 12 11 11 12 12 11 10 10 10 10 9 9 9 9 9 9 9 8 8 7 8 7 6 6 5 5 5
24 23 22 20 18 17 17 17 16 16 16 15 14 14 15 14 14 13 14 14 13 12 11 11 11 10 10 9 9 9 10 10 9 9 9 8 8 7 7 6 7 6
25 24 24 22 20 18 17 17 17 17 17 16 17 17 17 17 16 15 15 15 15 14 13 11 11 11 10 9 9 9 10 10 10 10 10 9 9 9 7 7 7 7
24 24 24 23 21 19 18 18 18 18 18 18 18 18 18 19 18 17 16 16 16 16 14 13 12 12 12 11 10 10 11 11 12 12 11 11 11 10 9 8 8 8
23 22 22 23 22 20 19 19 18 19 19 19 18 18 18 19 19 18 17 17 18 18 17 15 14 13 14 13 12 12 12 12 12 12 12 12 11 11 11 11 10 9
22 21 21 22 22 21 20 20 19 19 19 19 18 18 18 18 18 18 17 17 17 18 18 17 15 15 15 14 14 14 14 13 13 13 12 12 12 13 13 13 12 11
22 21 21 22 22 21 21 21 20 20 20 20 19 19 18 17 17 16 16 15 16 17 18 17 16 15 15 15 15 15 15 14 14 13 13 13 13 13 13 13 14 13
24 23 23 22 22 22 21 21 20 21 21 20 19 19 18 17 17 16 15 14 14 15 16 17 16 16 15 15 15 15 16 16 15 15 16 15 14 13 13 13 14 14
25 25 24 23 22 21 21 21 21 21 21 20 19 19 19 18 17 15 14 14 14 14 14 15 16 16 16 16 16 16 16 17 17 18 18 16 13 12 12 12 12 12
26 25 25 24 23 22 21 21 21 21 21 20 20 19 19 18 17 16 15 15 15 14 13 15 16 17 16 16 16 17 16 16 16 16 16 15 13 12 12 11 11 11
26 26 26 24 23 23 22 22 22 22 22 22 20 19 19 18 18 18 17 16 15 14 15 16 17 17 16 16 16 16 16 15 14 14 14 14 13 13 12 12 11 10
25 26 26 26 25 24 23 23 23 23 23 22 21 19 18 18 18 18 17 16 16 15 16 16 17 17 17 17 16 15 15 15 13 13 14 15 14 14 13 12 11 10
25 26 26 26 26 25 24 23 23 23 23 23 21 19 18 18 19 19 17 17 17 16 16 16 17 17 17 16 16 15 16 16 13 12 15 17 15 15 14 13 12 11
23 24 26 27 27 26 25 23 22 22 22 22 22 20 20 19 19 19 18 18 17 17 16 15 16 17 17 16 17 16 16 16 13 11 14 17 16 15 14 13 13 13
22 20 22 25 26 25 23 22 21 22 22 23 23 21 21 21 21 21 20 19 18 17 16 15 16 17 17 16 17 16 16 17 15 11 11 13 15 15 15 14 13 13
24 21 20 21 22 22 20 19 18 18 19 20 23 23 22 20 19 19 18 18 18 17 16 16 16 16 16 16 16 16 15 15 15 13 11 11 12 13 14 15 14 13
22 20 17 17 18 19 20 20 19 18 15 15 18 21 22 20 19 17 16 16 16 16 16 15 15 15 15 14 14 14 13 13 12 11 9 8 9 10 11 11 12 12
19 19 20 21 20 20 21 21 21 21 19 16 16 18 20 20 19 17 16 15 13 13 13 13 13 12 12 12 12 11 10 9 8 6 5 5 6 6 6 6 7 8
19 20 20 20 21 22 23 21 20 19 20 20 19 19 18 17 16 16 15 14 13 12 11 10 10 9 9 9 9 8 7 7 6 4 3 4 5 4 5 6 6 7
19 18 16 16 21 25 23 19 17 17 17 18 18 18 16 14 14 14 14 13 13 12 11 9 7 6 6 6 6 6 7 6 4 4 4 4 4 5 7 7 7 6
20 18 18 19 23 23 17 14 15 15 15 15 15 16 15 15 15 15 15 13 12 11 10 7 5 4 3 3 4 5 6 6 4 4 5 4 4 6 7 6 6 6
Wind_Direction
223 229 234 229 224 222 216 212 214 213 209 206 207 209 212 215 216 221 230 228 219 215 212 215 221 223 241 262 265 269 270 279 293 298 317 326 336 5 14 20 22 18
227 232 232 226 223 222 217 215 219 218 213 212 213 214 216 219 221 227 232 229 220 212 210 216 224 229 247 260 261 268 269 271 281 286 305 320 318 327 341 357 3 0
229 232 227 223 222 220 218 218 224 227 224 223 222 221 221 223 228 232 232 232 226 216 215 222 233 242 252 259 265 272 271 270 276 279 291 309 318 315 312 326 341 345
228 230 228 226 225 224 225 224 227 232 230 227 227 226 227 229 233 233 230 233 231 220 220 227 239 248 253 261 269 272 272 272 272 275 282 291 297 303 302 303 311 322
228 229 228 228 229 231 234 234 235 238 237 233 231 230 232 234 239 238 233 235 234 226 225 233 243 251 256 264 272 273 270 269 269 271 277 279 278 283 289 290 293 296
229 229 229 230 232 235 237 239 241 244 243 242 238 235 235 235 239 242 238 237 237 235 236 244 250 253 257 266 273 275 269 265 266 267 268 271 271 271 274 280 286 282
229 229 229 230 233 235 237 238 242 245 244 243 240 237 235 235 238 243 242 239 238 237 242 253 256 253 255 263 269 272 269 262 261 264 264 266 270 272 272 274 280 283
228 228 228 228 232 236 237 238 240 241 239 237 237 237 238 240 243 245 244 241 239 238 241 249 253 251 251 256 262 268 267 260 257 262 264 264 266 269 272 278 280 286
227 228 227 228 231 234 236 238 238 236 234 235 238 242 244 245 246 247 245 242 238 238 241 241 242 245 249 252 256 262 264 259 255 258 262 263 263 264 270 279 282 282
227 229 229 228 230 234 237 238 238 235 235 238 242 245 247 246 246 246 246 244 240 239 239 237 234 237 245 251 254 257 258 256 253 254 259 262 264 266 270 275 278 278
227 229 231 231 232 236 239 240 239 237 237 240 242 245 247 247 246 247 248 246 244 242 238 236 236 237 242 250 255 256 255 254 254 252 255 260 265 270 271 270 271 274
226 228 230 231 234 239 242 242 240 241 241 242 243 245 247 247 247 248 248 248 248 245 238 235 237 238 243 250 254 254 252 253 254 254 256 261 266 270 271 270 270 274
224 227 229 230 233 238 242 243 243 244 245 246 248 250 249 248 249 247 246 247 247 243 238 234 234 239 245 249 252 252 252 253 256 258 260 263 267 269 269 269 271 272
225 227 230 231 233 237 239 241 242 244 246 249 253 253 251 251 252 251 249 249 248 243 239 235 236 242 247 249 251 253 255 256 256 257 259 260 263 268 269 269 269 270
227 228 230 232 235 237 238 239 239 240 243 249 254 254 253 253 253 253 252 251 249 245 241 237 239 246 249 250 253 255 258 258 255 255 257 256 259 267 272 270 269 272
228 228 229 231 234 237 239 239 238 238 241 247 252 253 253 253 252 252 253 251 247 244 241 238 238 244 249 252 254 255 256 255 250 251 257 259 261 264 267 271 272 276
230 228 228 230 233 236 238 238 237 238 240 244 249 251 251 250 249 252 252 248 246 245 244 240 239 244 248 249 248 248 249 249 245 248 255 259 260 262 267 272 273 278
234 231 229 229 231 233 236 238 237 237 239 242 246 249 250 249 249 250 248 246 245 245 244 242 242 246 248 246 244 245 249 251 246 243 253 258 258 260 267 272 270 275
235 235 232 231 231 232 234 236 235 235 237 241 245 248 249 250 250 248 245 244 244 243 242 242 242 244 246 246 247 249 252 256 251 241 251 263 268 268 268 268 265 269
226 237 239 235 231 231 233 233 233 234 236 239 242 244 244 245 245 244 241 239 239 240 241 241 240 243 245 248 251 252 254 258 259 251 246 258 269 272 268 264 263 265
220 231 242 241 231 227 226 224 223 226 231 237 238 238 239 240 238 238 236 233 233 236 238 239 240 243 247 251 254 257 258 260 266 267 259 253 256 260 259 257 256 254
217 215 228 238 231 221 217 215 215 218 225 238 241 236 233 233 232 230 228 228 230 232 233 234 238 242 247 252 256 260 263 266 268 273 275 270 263 260 256 251 247 241
215 208 215 227 229 223 217 216 218 221 223 231 238 234 226 224 223 221 220 222 224 224 226 229 234 241 245 250 256 258 261 266 269 272 278 273 264 258 249 238 231 228
214 213 215 220 224 224 220 215 214 217 219 220 222 222 217 211 209 207 207 208 206 205 208 214 222 231 238 242 249 254 256 260 266 267 255 241 236 223 212 208 207 210
210 213 214 219 227 228 223 214 208 208 210 209 207 208 206 197 195 193 188 183 183 183 185 191 203 216 232 244 249 256 261 261 258 247 227 216 206 203 207 209 206 205
210 213 218 225 231 231 223 215 214 209 203 201 202 203 199 188 184 183 175 166 165 168 166 168 183 195 217 250 256 258 260 256 239 221 217 212 204 204 208 207 207 211